Pasco, WA
on Tuesday, November 27, 2012

Tuesday
Previous Day Next Day
Daily Summary
 ActualAverageRecord
Temperature
Mean Temperature °F 37°F  
Max Temperature 35°F 45°F 61°F (2011)
Min Temperature 32°F 30°F 10°F (1993)
Degree Days
Heating Degree Days 31 28  
Month to date heating degree days 566 625  
Since 1 July heating degree days 1010 1143  
Cooling Degree Days 0 0  
Month to date cooling degree days 0 0  
Year to date cooling degree days 788 710  
Moisture
Dew Point 30°F   
Average Humidity 87    
Maximum Humidity 92    
Minimum Humidity 82    
Precipitation
Precipitation 0.00 in in 0.36 in (1955)
Month to date precipitation 1.03  
Year to date precipitation 8.49  
Snow
Snow 0.00 in in in ()
Snow Depth 0.00 in   
Wind
Wind Speed 2 mph   
Max Wind Speed 8 mph   
Max Gust Speed 9 mph   
Visibility 10 miles   
Events     

Key: T is trace of precipitation, MM is missing value
Source: NWS Daily Summary
Time(PST)TemperatureDew PointHumidity Pressure Visibility Wind DirectionWind SpeedGust SpeedPrecipitationEvents Conditions
12:53 AM 32.0°F 30.0°F 92% 30.29 in 10.0 miles Calm Calm - N/A   Overcast
1:53 AM 32.0°F 30.0°F 92% 30.29 in 10.0 miles East 3.5 mph - N/A   Overcast
2:53 AM 32.0°F 30.0°F 92% 30.29 in 10.0 miles East 3.5 mph - N/A   Overcast
3:53 AM 32.0°F 30.0°F 92% 30.28 in 10.0 miles East 3.5 mph - N/A   Overcast
4:53 AM 32.0°F 30.9°F 96% 30.30 in 9.0 miles Calm Calm - N/A   Overcast
5:53 AM 32.0°F 30.0°F 92% 30.30 in 8.0 miles Calm Calm - N/A   Overcast
6:53 AM 32.0°F 30.0°F 92% 30.30 in 10.0 miles North 3.5 mph - N/A   Overcast
7:53 AM 32.0°F 30.0°F 92% 30.30 in 6.0 miles Calm Calm - N/A   Overcast
8:53 AM 33.1°F 30.0°F 89% 30.31 in 7.0 miles Calm Calm - N/A   Overcast
9:53 AM 34.0°F 30.0°F 85% 30.31 in 10.0 miles North 4.6 mph - N/A   Overcast
10:53 AM 34.0°F 30.0°F 85% 30.30 in 10.0 miles NNW 4.6 mph - N/A   Overcast
11:53 AM 34.0°F 30.0°F 85% 30.28 in 10.0 miles NW 3.5 mph - N/A   Overcast
12:53 PM 34.0°F 30.9°F 89% 30.26 in 9.0 miles Calm Calm - N/A   Overcast
1:31 PM 35.6°F 30.2°F 81% 30.24 in 10.0 miles Calm Calm - N/A   Overcast
1:53 PM 35.1°F 30.9°F 85% 30.25 in 10.0 miles NNW 3.5 mph - N/A   Overcast
2:53 PM 35.1°F 30.9°F 85% 30.24 in 10.0 miles NW 3.5 mph - N/A   Overcast
3:51 PM 33.8°F 30.2°F 87% 30.22 in 10.0 miles North 6.9 mph - N/A   Overcast
3:53 PM 34.0°F 30.9°F 89% 30.23 in 10.0 miles NNE 5.8 mph - N/A   Overcast
4:53 PM 34.0°F 30.0°F 85% 30.22 in 10.0 miles NNE 4.6 mph - N/A   Overcast
5:53 PM 33.1°F 30.0°F 89% 30.22 in 10.0 miles NNE 3.5 mph - N/A   Overcast
6:53 PM 33.1°F 30.0°F 89% 30.22 in 10.0 miles Calm Calm - N/A   Overcast
7:27 PM 33.8°F 30.2°F 87% 30.20 in 10.0 miles East 5.8 mph - N/A   Overcast
7:53 PM 33.1°F 30.0°F 89% 30.21 in 10.0 miles East 5.8 mph - N/A   Overcast
8:53 PM 32.0°F 30.0°F 92% 30.20 in 10.0 miles ENE 3.5 mph - N/A   Overcast
9:53 PM 33.1°F 30.9°F 92% 30.19 in 10.0 miles Calm Calm - N/A   Overcast
10:53 PM 32.0°F 30.9°F 96% 30.19 in 9.0 miles Calm Calm - N/A   Overcast
11:20 PM 33.8°F 30.2°F 87% 30.16 in 8.0 miles Calm Calm - N/A   Overcast
11:53 PM 32.0°F 30.9°F 96% 30.17 in 9.0 miles North 3.5 mph - N/A   Overcast
Moon Phase
Nov. 27 Nov. 28 Dec. 06 Dec. 13 Dec. 20
Sunrise:07:14 AM (PST) Moon Rise:03:49 PM (PST)11/27
Sunset:04:13 PM (PST) Moon Set:06:22 AM (PST)11/27

Copyright © 2014 The Weather Underground, Inc.